Weather History for KMMK - December, 2012

Change the Weather History Date:

Friday, December 14, 2012

  Actual Average (KHVN) Record (KHVN)
Temperature  
Mean Temperature 34 °F -  
Max Temperature 48 °F 41 °F 58 °F (1990)
Min Temperature 19 °F 29 °F 10 °F (2005)
Degree Days  
Heating Degree Days 32    
Moisture  
Dew Point 22 °F    
Average Humidity 69    
Maximum Humidity 89    
Minimum Humidity 33    
Precipitation  
Precipitation 0.00 in - - ()
Sea Level Pressure  
Sea Level Pressure 30.21 in    
Wind  
Wind Speed 1 mph (West)    
Max Wind Speed 8 mph    
Max Gust Speed -    
Visibility 8 miles    
Events      
Averages and records for this station are not official NWS values.
T = Trace of Precipitation, MM = Missing Value Source: NWS Daily Summary

Daily Weather History Graph

Daily Weather History Graph

Search for Another Location

Airport or City:

Trip Planner

Search our weather history database for the weather conditions in past years. The results will help you decide how hot, cold, wet, or windy it might be!

Date:

Astronomy

Dec. 14, 2012 Rise Set
Actual Time 7:10 AM EST 4:22 PM EST
Civil Twilight 6:38 AM EST 4:53 PM EST
Nautical Twilight 6:04 AM EST 5:28 PM EST
Astronomical Twilight 5:30 AM EST 6:02 PM EST
Moon 8:12 AM EST (12/14) 6:12 PM EST (12/14)
Length of Visible Light 10h 14m
Length of Day
9h 11m
Waxing Crescent, 3% of the Moon is Illuminated
Dec 14
Waxing Crescent
Dec 20
First Quarter
Dec 28
Full
Jan 4
Last Quarter
Jan 11
New

Hourly Weather History & Observations

Time (EST) Temp. Windchill Dew Point Humidity Pressure Visibility Wind Dir Wind Speed Gust Speed Precip Events Conditions
1:53 AM 25.0 °F - 21.9 °F 88% 30.31 in 5.0 mi Calm Calm - N/A   Clear
2:53 AM 21.9 °F - 19.0 °F 89% 30.30 in 6.0 mi Calm Calm - N/A   Clear
3:53 AM 21.9 °F - 19.0 °F 89% 30.28 in 5.0 mi Calm Calm - N/A   Clear
4:53 AM 21.9 °F - 19.0 °F 89% 30.27 in 5.0 mi Calm Calm - N/A   Clear
5:53 AM 19.9 °F - 17.1 °F 89% 30.27 in 6.0 mi Calm Calm - N/A   Clear
6:53 AM 19.9 °F - 17.1 °F 89% 30.26 in 5.0 mi Calm Calm - N/A   Clear
7:53 AM 21.9 °F - 19.0 °F 89% 30.25 in 5.0 mi Calm Calm - N/A   Clear
8:53 AM 30.0 °F - 27.0 °F 88% 30.24 in 5.0 mi Calm Calm - N/A   Clear
9:53 AM 39.0 °F - 27.0 °F 62% 30.24 in 10.0 mi Calm Calm - N/A   Clear
10:53 AM 43.0 °F 38.2 °F 24.1 °F 47% 30.21 in 10.0 mi South 8.1 mph - N/A   Clear
11:53 AM 44.1 °F - 23.0 °F 43% 30.17 in 10.0 mi Calm Calm - N/A   Clear
12:53 PM 46.9 °F - 21.9 °F 37% 30.13 in 10.0 mi Calm Calm - N/A   Clear
1:53 PM 48.0 °F - 19.9 °F 33% 30.12 in 10.0 mi WSW 8.1 mph - N/A   Clear
2:53 PM 48.0 °F - 21.0 °F 34% 30.13 in 10.0 mi West 4.6 mph - N/A   Clear
3:53 PM 46.9 °F - 21.9 °F 37% 30.14 in 10.0 mi WNW 3.5 mph - N/A   Clear
4:53 PM 43.0 °F 40.3 °F 21.0 °F 42% 30.15 in 10.0 mi WNW 4.6 mph - N/A   Clear
5:53 PM 34.0 °F - 26.1 °F 73% 30.17 in 10.0 mi Calm Calm - N/A   Clear
6:53 PM 34.0 °F - 25.0 °F 70% 30.19 in 10.0 mi Calm Calm - N/A   Clear
7:53 PM 28.9 °F - 23.0 °F 78% 30.20 in 10.0 mi Calm Calm - N/A   Clear
8:53 PM 30.9 °F - 25.0 °F 79% 30.21 in 10.0 mi Calm Calm - N/A   Clear
9:53 PM 30.9 °F - 25.0 °F 79% 30.21 in 10.0 mi Calm Calm - N/A   Clear
10:53 PM 32.0 °F - 26.1 °F 79% 30.21 in 8.0 mi Calm Calm - N/A   Clear
11:53 PM 27.0 °F - 24.1 °F 89% 30.22 in 7.0 mi Calm Calm - N/A   Clear